MDT,Max TemperatureF,Mean TemperatureF,Min TemperatureF,Max Dew PointF,MeanDew PointF,Min DewpointF,Max Humidity, Mean Humidity, Min Humidity, Max Sea Level PressureIn, Mean Sea Level PressureIn, Min Sea Level PressureIn, Max VisibilityMiles, Mean VisibilityMiles, Min VisibilityMiles, Max Wind SpeedMPH, Mean Wind SpeedMPH, Max Gust SpeedMPH,PrecipitationIn, CloudCover, Events, WindDirDegrees
2013-3-1,45,36,26,22,17,12,80,49,27,30.35,30.28,30.19,10,10,10,16,10,22,0.00,4,,342
2013-3-2,60,48,35,31,28,21,70,48,29,30.18,30.07,29.87,10,10,10,21,8,26,0.00,2,,296
2013-3-3,57,45,33,30,29,23,87,60,33,29.84,29.64,29.52,10,10,9,50,15,66,0.01,4,Rain-Snow,345
2013-3-4,33,24,15,24,13,1,86,70,27,30.33,30.10,29.74,10,7,1,46,30,59,0.00,6,Snow,328
2013-3-5,30,20,9,13,9,5,81,66,47,30.49,30.41,30.33,10,10,10,21,13,30,0.00,0,,29
2013-3-6,47,30,13,24,17,9,85,58,30,30.30,30.05,29.81,10,10,10,21,12,18,0.00,0,,149
2013-3-7,55,42,30,26,24,21,72,53,28,30.19,29.98,29.78,10,10,9,28,12,32,0.00,1,,350
2013-3-8,41,34,26,28,25,24,94,74,54,30.14,30.03,29.91,10,10,4,15,7,,0.00,5,,126
2013-3-9,44,35,26,27,23,9,100,78,26,30.18,29.91,29.83,10,5,0,43,19,51,0.00,7,Fog,358
2013-3-10,41,28,16,18,11,4,86,55,22,30.32,30.21,29.99,10,10,10,26,16,31,0.00,3,,3
2013-3-11,49,37,26,27,16,7,61,43,27,30.15,29.99,29.92,10,10,10,34,15,46,0.00,2,,320
2013-3-12,40,32,23,12,5,2,53,35,22,30.35,30.29,30.17,10,10,10,29,22,43,0.00,0,,339
2013-3-13,66,46,27,27,17,2,47,33,24,30.25,30.13,30.04,10,10,10,14,8,23,0.00,3,,202
2013-3-14,71,54,38,31,29,26,65,38,21,30.20,30.07,29.92,10,10,10,13,7,,0.00,1,,294
2013-3-15,69,50,33,32,28,26,75,46,21,30.08,29.88,29.75,10,10,9,29,10,39,0.00,2,,353
2013-3-16,32,28,23,28,26,21,100,91,69,30.13,30.06,29.99,10,4,0,17,10,,0.03,8,Fog-Snow,128
2013-3-17,48,36,23,36,27,17,100,87,62,29.98,29.67,29.40,10,6,1,43,22,55,0.11,7,Rain-Snow,109
2013-3-18,38,26,14,16,8,-2,80,52,19,30.04,29.96,29.84,10,10,10,26,19,34,0.00,3,Snow,345
2013-3-19,37,28,16,20,11,3,70,49,27,30.46,30.24,29.99,10,10,10,28,13,36,0.00,0,,323
2013-3-20,47,30,14,16,11,4,69,46,27,30.45,30.13,29.86,10,10,10,24,9,30,0.00,2,,159
2013-3-21,44,30,17,27,22,11,94,80,43,29.93,29.85,29.69,10,6,1,20,11,26,0.04,6,Snow,38
2013-3-22,34,24,14,29,23,12,94,90,74,30.17,29.99,29.80,10,3,0,28,8,36,0.01,6,Fog-Snow,344
2013-3-23,26,18,10,18,13,5,80,75,63,30.35,30.26,30.17,10,6,0,23,17,31,0.00,3,Snow,336
2013-3-24,21,14,8,14,10,5,93,78,68,30.44,30.35,30.29,10,8,1,30,16,36,0.00,6,Snow,331
2013-3-25,27,17,7,14,9,0,86,72,49,30.48,30.42,30.30,10,10,6,17,10,,0.00,3,,319
2013-3-26,41,28,15,23,16,9,79,64,43,30.28,30.15,30.08,10,10,10,13,8,,0.00,1,,75
2013-3-27,53,37,21,28,22,14,84,56,28,30.16,30.13,30.09,10,10,10,10,3,,0.00,1,,119
2013-3-28,62,44,28,29,26,22,76,48,24,30.11,30.08,30.05,10,10,10,7,4,,0.00,2,,36
2013-3-29,68,54,39,32,29,26,62,41,21,30.09,30.00,29.92,10,10,10,18,8,,0.00,2,,250
2013-3-30,56,46,33,41,33,29,85,60,41,30.16,30.07,30.02,10,10,10,32,14,43,0.01,5,Rain,308
2013-3-31,50,39,30,31,26,16,86,70,30,30.26,30.16,29.98,10,10,10,17,8,26,0.00,5,Rain,38